Regional Weather Roundup
Issued by NWS

Home | Current Version | Previous Version | Text Only | Print | Product List | Glossary On
Versions: 1 2 3 4 5 6 7 8 9 10 11 12 13 14 15 16 17 18 19 20 21 22 23 24 25 26 27 28 29 30 31 32 33 34 35 36 37 38 39 40 41 42 43 44 45 46 47 48 49 50
628
ASPQ40 PGUM 090512
RWRPQ
WEATHER ROUNDUP FOR THE MARIANAS AND MICRONESIA
NATIONAL WEATHER SERVICE TIYAN GU
300 PM CHST FRI DEC 09 2016

GUZ001>004-090600-
MARIANA ISLANDS-

CITY           SKY/WX    TMP DP  RH WIND       PRES   REMARKS
GUAM AIRPORT   MOSUNNY   84  73  70 E10       29.77S HX  91
ANDERSEN AFB   MOSUNNY   84  73  70 E12       29.79S HX  91
ROTA AIRPORT   MOSUNNY   82  75  78 E10       29.77F
TINIAN AP      MOSUNNY   86  75  70 E10       29.75F HX  95
SAIPAN AP      MOSUNNY   84  75  74 E15G22    29.77F HX  92

$$

PMZ161-090600-
REPUBLIC OF PALAU-

CITY           SKY/WX    TMP DP  RH WIND       PRES   REMARKS
KOROR AP       CLOUDY    84  81  89 E8        29.74F HX  98
KOROR WSO      PTSUNNY   88  77  70 SE6       29.73F HX 100

$$

PMZ171>174-090600-
FEDERATED STATES OF MICRONESIA-

CITY           SKY/WX    TMP DP  RH WIND       PRES   REMARKS
YAP AIRPORT    PTSUNNY   86  81  84 E8        29.71F HX 102
CHUUK AP       PTSUNNY   86  82  89 VRB3      29.69S HX 105
POHNPEI AP     CLOUDY    88  77  70 E6        29.68S HX 100
POHNPEI WSO    CLOUDY    88  75  66 E6        29.72R HX  97
KOSRAE AP      NOT AVBL

$$

PMZ181-090600-
REPUBLIC OF THE MARSHALL ISLANDS-

CITY           SKY/WX    TMP DP  RH WIND       PRES   REMARKS
KWAJALEIN AP   SUNNY     84  73  70 E16       29.75R HX  91
MAJURO AP      NOT AVBL
MAJURO WSO     CLOUDY    84  77  79 NE8       29.71R HX  94

$$





USA.gov is the U.S. government's official web portal to all federal, state and local government web resources and services.